CW0565 Weather Reports


time (UTC)temp
C
wind
direction
speed
KPH
gust
KPH
rain 1hr
cm
rain 24hr
cm
rain mn
cm
humidity
%
barometer
mb
20260831003017 12 175 8.0 12.9 0.00 0.03 0.00 81 1004.2
20260831001511 12 165 6.4 12.9 0.00 0.03 0.00 81 1004.2
20260831000016 12 165 6.4 9.7 0.00 0.03 0.00 81 1004.3
20260830234509 12 229 1.6 6.4 0.00 0.03 0.00 79 1004.2
20260830233010 12 227 4.8 9.7 0.00 0.03 0.00 79 1004.3
20260830231515 12 230 8.0 14.5 0.00 0.03 0.00 79 1004.2
20260830230009 12 237 6.4 17.7 0.00 0.03 0.00 79 1004.1
20260830224510 13 250 3.2 11.3 0.00 0.05 0.00 79 1003.9
20260830223009 13 226 4.8 11.3 0.00 0.05 0.00 79 1004.0
20260830221510 13 229 3.2 12.9 0.00 0.05 0.00 79 1003.9
20260830220010 13 229 6.4 16.1 0.00 0.05 0.05 79 1003.8
20260830214510 13 227 4.8 9.7 0.00 0.05 0.05 79 1003.8
20260830213010 13 266 1.6 17.7 0.00 0.05 0.05 79 1003.8
20260830211510 13 241 1.6 6.4 0.00 0.05 0.05 79 1003.7
20260830210010 13 249 0.0 4.8 0.00 0.05 0.05 78 1003.6
20260830204515 14 250 4.8 8.0 0.00 0.05 0.05 77 1003.5
20260830203013 14 238 0.0 6.4 0.00 0.05 0.05 77 1003.4
20260830201509 14 242 3.2 12.9 0.00 0.05 0.05 77 1003.3
20260830200009 14 247 1.6 4.8 0.00 0.05 0.05 77 1003.1
20260830194509 15 249 0.0 4.8 0.00 0.05 0.05 75 1003.0
20260830193022 15 294 3.2 14.5 0.00 0.05 0.05 74 1002.7
20260830191523 15 266 6.4 12.9 0.00 0.05 0.05 73 1002.7
20260830190010 16 248 4.8 12.9 0.00 0.05 0.05 73 1002.6
20260830184517 16 232 6.4 16.1 0.00 0.05 0.05 72 1002.4
20260830183009 16 204 3.2 14.5 0.00 0.05 0.05 72 1002.2
20260830181508 17 244 9.7 17.7 0.00 0.05 0.05 70 1002.1
20260830180014 17 244 9.7 16.1 0.00 0.08 0.05 68 1002.0
20260830174510 18 225 8.0 22.5 0.00 0.08 0.05 67 1001.9
20260830173009 18 241 4.8 22.5 0.00 0.08 0.05 66 1001.5
20260830171510 19 246 9.7 19.3 0.00 0.08 0.05 64 1001.4
20260830170008 19 306 12.9 25.7 0.00 0.08 0.05 64 1001.3
20260830164509 20 284 12.9 22.5 0.00 0.08 0.05 63 1001.2
20260830163010 20 302 11.3 19.3 0.00 0.08 0.05 64 1001.1
20260830161509 20 242 6.4 17.7 0.00 0.08 0.05 65 1000.9
20260830160009 20 252 11.3 20.9 0.00 0.08 0.05 64 1000.8
20260830154509 20 228 14.5 22.5 0.00 0.08 0.05 65 1000.7
20260830153008 20 227 12.9 20.9 0.00 0.08 0.05 64 1000.7
20260830151509 20 271 11.3 17.7 0.00 0.08 0.05 63 1000.6
20260830150024 20 219 9.7 20.9 0.00 0.08 0.05 65 1000.7
20260830144514 20 258 12.9 24.1 0.00 0.08 0.05 66 1000.7
20260830143009 20 218 11.3 19.3 0.00 0.08 0.05 66 1000.6
20260830141510 20 232 4.8 19.3 0.00 0.08 0.05 71 1000.5
20260830140009 19 181 8.0 14.5 0.00 0.10 0.05 72 1000.4
20260830134513 19 174 11.3 19.3 0.00 0.10 0.05 71 1000.4
20260830133011 19 196 6.4 16.1 0.00 0.10 0.05 70 1000.5
20260830131513 19 182 8.0 14.5 0.00 0.10 0.05 70 1000.4
20260830124515 20 179 6.4 14.5 0.00 0.10 0.05 67 1000.3
20260830123009 20 257 6.4 14.5 0.00 0.10 0.05 64 1000.2
20260830121509 20 246 1.6 11.3 0.00 0.10 0.05 63 1000.2
20260830120019 20 181 4.8 12.9 0.00 0.10 0.05 64 1000.3
20260830114509 20 237 3.2 12.9 0.00 0.10 0.05 60 1000.2
20260830113013 20 232 8.0 12.9 0.00 0.10 0.05 61 1000.2
20260830111509 20 291 1.6 11.3 0.00 0.10 0.05 65 1000.1
20260830110011 20 284 6.4 16.1 0.00 0.10 0.05 67 1000.2
20260830104509 20 255 9.7 16.1 0.00 0.10 0.05 66 1000.2
20260830103010 20 236 4.8 11.3 0.00 0.10 0.05 65 1000.1
20260830101531 20 235 3.2 8.0 0.00 0.10 0.05 68 1000.2
20260830094509 19 155 0.0 4.8 0.00 0.13 0.05 73 1000.2
20260830093010 18 155 0.0 8.0 0.00 0.13 0.05 78 1000.2
20260830091510 18 154 1.6 4.8 0.00 0.13 0.05 78 1000.2
20260830090031 17 155 1.6 9.7 0.00 0.13 0.05 81 1000.2
20260830084521 17 155 0.0 9.7 0.00 0.18 0.05 84 1000.2
20260830083032 17 155 0.0 3.2 0.00 0.18 0.05 86 1000.0
20260830081509 17 155 0.0 3.2 0.00 0.18 0.05 95 1000.0
20260830080011 16 155 0.0 3.2 0.00 0.18 0.05 96 1000.1
20260830073010 15 155 0.0 3.2 0.00 0.18 0.05 98 1000.0
20260830071510 15 156 0.0 3.2 0.00 0.18 0.05 100 999.9
20260830070009 15 155 1.6 4.8 0.00 0.23 0.05 100 999.9
20260830063010 15 155 0.0 4.8 0.03 0.23 0.05 100 999.8
20260830061514 15 155 0.0 3.2 0.03 0.23 0.05 100 999.8
20260830054510 14 155 0.0 8.0 0.00 0.43 0.03 100 999.9
20260830051509 14 155 0.0 3.2 0.00 0.43 0.03 100 999.8
20260830044512 14 155 0.0 4.8 0.00 0.46 0.03 100 999.8
20260830043009 14 155 0.0 4.8 0.00 0.46 0.03 100 999.8
20260830041509 14 154 0.0 8.0 0.00 0.46 0.03 100 999.8
20260830040011 14 155 4.8 12.9 0.00 0.46 0.03 100 999.8
20260830034510 14 155 4.8 9.7 0.00 0.51 0.03 98 999.9
20260830033010 14 155 6.4 11.3 0.00 0.51 0.03 97 999.8
20260830031509 15 155 4.8 9.7 0.00 0.51 0.03 97 999.8
20260830024509 15 156 6.4 12.9 0.00 0.61 0.03 96 999.8
20260830023010 15 150 4.8 11.3 0.00 0.61 0.03 96 999.8
20260830021509 15 151 4.8 12.9 0.00 0.61 0.03 96 999.9
20260830020010 15 150 4.8 9.7 0.00 0.61 0.03 96 999.9
20260830013027 15 150 3.2 9.7 0.00 0.64 0.03 96 999.9
20260830011509 15 150 4.8 11.3 0.00 0.64 0.03 96 999.9
20260830010025 15 149 4.8 9.7 0.00 0.64 0.03 96 1000.0
20260830004509 15 149 3.2 8.0 0.00 0.64 0.03 96 999.9